Temp
86 86 85 85 85 86 85 85 85 85 84 85 84 83 83 83 85 84 84 83 82 82 82 81 82 81 82 81 81 81 80 80 80 80 79 79 79 79 79 78 78 78
86 86 85 86 85 85 85 86 85 85 84 84 84 84 84 84 85 84 83 82 82 82 82 82 81 81 81 80 80 79 79 80 79 82 79 78 78 78 79 79 79 78
86 86 86 86 86 86 88 87 86 86 86 86 86 85 85 85 84 84 83 83 82 83 81 81 81 81 81 80 79 79 79 78 78 81 80 78 78 78 79 80 78 78
86 86 87 87 87 87 87 86 86 85 86 85 86 87 86 86 84 83 83 83 81 81 82 82 81 81 81 80 80 78 79 78 79 80 79 79 79 79 79 79 79 78
86 86 87 87 87 87 87 86 87 87 87 86 87 86 85 83 83 83 82 82 81 82 81 81 81 81 80 79 79 78 79 78 79 78 78 78 78 78 79 78 78 78
87 87 86 87 86 86 86 86 87 87 87 87 86 87 86 84 83 83 83 82 83 83 83 82 81 81 81 79 78 77 78 78 79 78 77 77 79 79 80 79 78 77
87 87 87 88 88 87 87 86 87 86 87 87 86 85 86 85 83 82 82 82 82 81 82 81 80 80 80 79 78 77 77 77 78 78 77 77 77 78 80 79 78 77
88 88 88 88 88 87 87 87 87 86 87 86 86 86 85 85 83 84 82 82 82 81 80 81 80 79 80 79 77 77 78 79 78 77 76 76 77 76 77 79 78 76
88 88 88 87 87 88 89 89 89 87 87 86 86 87 85 84 83 83 81 81 81 80 80 80 79 79 80 79 78 77 77 78 79 78 77 77 76 76 77 78 77 77
87 88 88 89 89 89 90 90 90 89 88 87 87 87 85 84 83 83 82 80 80 80 80 79 79 79 79 79 78 78 77 77 77 77 78 77 77 77 78 77 77 76
87 89 88 88 89 90 90 91 91 91 89 88 87 87 86 84 82 83 81 80 80 80 79 79 79 79 79 79 79 79 78 78 78 77 77 77 77 77 78 77 77 77
87 88 87 89 90 91 91 91 91 89 89 89 89 88 87 86 83 83 81 80 80 80 79 79 79 79 78 79 80 79 78 79 78 78 78 78 78 79 79 79 78 78
87 87 88 90 88 89 90 91 92 92 91 90 89 89 87 86 85 83 81 81 80 80 80 79 79 79 78 78 78 78 78 78 79 79 78 78 78 79 80 80 80 79
87 88 88 88 89 88 88 90 91 90 89 88 88 88 88 86 85 83 82 81 80 80 80 80 79 79 78 78 78 78 78 78 78 78 78 78 78 79 81 81 80 81
87 88 88 88 88 87 87 88 89 88 88 88 87 88 88 89 87 85 81 80 80 80 80 80 79 79 79 79 78 78 78 78 78 78 78 78 78 80 80 80 82 82
87 87 87 87 87 87 86 87 89 88 89 88 87 88 87 86 84 83 83 81 79 79 79 79 79 79 76 71 73 78 78 78 78 77 78 78 77 77 79 80 81 82
87 87 87 86 86 87 87 87 87 88 87 86 86 86 86 84 83 82 82 81 81 80 79 79 79 79 71 68 70 72 77 78 77 77 78 78 78 77 77 78 80 81
87 87 86 86 86 86 86 86 87 87 86 86 85 85 84 84 83 81 81 81 81 81 80 79 79 73 67 67 68 69 73 78 78 78 78 78 79 78 78 78 78 80
86 86 85 85 85 86 86 85 85 86 86 85 85 85 84 82 81 81 80 81 81 79 80 80 80 69 65 65 66 67 69 75 78 78 78 78 78 78 77 76 77 77
86 85 85 84 85 85 85 84 84 84 86 87 86 84 82 82 82 81 81 80 80 79 79 80 80 67 64 64 65 65 66 70 79 78 78 78 77 78 78 78 77 77
85 85 84 84 84 84 84 84 84 84 84 85 85 83 81 80 81 81 80 81 81 81 80 80 79 63 62 62 63 63 63 67 78 77 77 76 76 77 77 77 77 78
85 84 84 84 84 84 83 83 83 82 82 82 83 83 82 82 81 82 81 81 81 81 81 79 76 60 61 61 60 61 62 72 75 75 75 75 76 76 75 75 76 76
85 84 84 83 83 83 82 83 82 82 82 83 82 82 82 81 80 82 81 82 82 80 79 78 73 62 59 58 59 61 64 72 74 73 74 74 75 74 75 76 76 76
85 85 83 83 83 83 82 82 83 83 83 83 82 81 81 82 82 80 81 81 81 80 81 79 74 62 58 57 60 59 65 72 73 73 73 74 74 75 74 74 72 74
85 84 84 84 83 83 83 82 82 82 83 83 83 83 83 81 81 80 79 79 80 80 77 78 74 65 58 58 57 57 65 73 72 73 71 72 72 70 68 68 69 71
84 83 83 83 82 82 82 82 82 84 84 83 83 83 83 82 80 79 77 78 79 79 76 76 72 67 62 57 57 55 61 74 73 71 71 71 71 68 68 67 68 69
MSLP
1009.93 1010.25 1010.61 1010.85 1011.01 1011.13 1011.37 1011.77 1011.97 1012.25 1012.45 1012.61 1013.01 1013.09 1013.17 1013.17 1013.05 1013.41 1013.89 1014.29 1014.61 1014.85 1015.01 1015.21 1015.33 1015.49 1015.61 1015.77 1015.85 1016.01 1016.17 1016.41 1016.61 1016.73 1017.01 1017.21 1017.45 1017.53 1017.65 1017.69 1017.73 1017.77
1009.65 1009.89 1010.13 1010.33 1010.61 1010.69 1010.85 1011.05 1011.45 1011.77 1012.05 1012.17 1012.33 1012.53 1012.61 1012.81 1013.01 1013.29 1013.73 1014.17 1014.45 1014.69 1014.77 1014.97 1015.17 1015.33 1015.53 1015.69 1015.81 1016.05 1016.17 1016.25 1016.57 1016.37 1016.85 1017.13 1017.29 1017.41 1017.49 1017.41 1017.53 1017.49
1009.25 1009.57 1009.81 1010.13 1010.29 1010.45 1010.53 1010.61 1010.89 1011.25 1011.57 1011.69 1011.77 1012.01 1012.37 1012.49 1012.89 1013.13 1013.45 1013.85 1014.29 1014.45 1014.61 1014.73 1015.01 1015.21 1015.41 1015.61 1015.77 1016.01 1016.17 1016.25 1016.41 1016.25 1016.45 1016.85 1016.97 1017.25 1017.25 1017.17 1017.29 1017.41
1008.89 1009.05 1009.29 1009.49 1009.65 1009.97 1010.05 1010.37 1010.61 1010.89 1011.09 1011.49 1011.65 1011.65 1011.89 1012.13 1012.53 1012.93 1013.25 1013.57 1013.97 1014.21 1014.29 1014.49 1014.73 1014.97 1015.21 1015.41 1015.65 1015.97 1016.05 1016.13 1016.09 1016.09 1016.29 1016.45 1016.69 1016.89 1017.05 1017.05 1017.13 1017.21
1008.49 1008.69 1008.77 1008.93 1009.09 1009.33 1009.61 1010.05 1010.33 1010.57 1010.81 1011.01 1011.21 1011.33 1011.61 1011.97 1012.41 1012.81 1013.17 1013.49 1013.77 1014.09 1014.21 1014.37 1014.45 1014.65 1014.77 1015.05 1015.33 1015.77 1015.93 1015.97 1015.89 1015.93 1016.17 1016.41 1016.45 1016.65 1016.81 1016.89 1017.09 1017.25
1007.85 1008.01 1008.21 1008.49 1008.69 1009.01 1009.41 1009.65 1009.85 1010.09 1010.41 1010.69 1010.93 1010.97 1011.33 1011.69 1012.17 1012.57 1012.97 1013.37 1013.61 1013.89 1014.17 1014.33 1014.57 1014.69 1014.77 1015.01 1015.25 1015.57 1015.81 1015.89 1015.65 1015.81 1016.09 1016.25 1016.29 1016.33 1016.53 1016.65 1016.85 1017.13
1007.45 1007.61 1007.85 1007.93 1008.29 1008.49 1008.89 1009.17 1009.41 1009.61 1009.93 1010.13 1010.41 1010.81 1010.97 1011.49 1011.85 1012.17 1012.53 1012.89 1013.25 1013.53 1013.73 1014.01 1014.33 1014.61 1014.69 1014.89 1015.17 1015.41 1015.57 1015.77 1015.77 1015.69 1015.93 1016.09 1016.17 1016.33 1016.25 1016.37 1016.57 1016.81
1006.81 1006.97 1007.21 1007.53 1007.93 1008.17 1008.49 1008.73 1009.01 1009.29 1009.45 1009.77 1010.21 1010.33 1010.53 1011.05 1011.49 1011.81 1012.21 1012.65 1013.05 1013.33 1013.49 1013.73 1014.01 1014.29 1014.41 1014.61 1015.05 1015.29 1015.41 1015.37 1015.57 1015.65 1015.77 1015.89 1016.01 1016.33 1016.29 1016.21 1016.37 1016.69
1006.17 1006.57 1006.77 1007.17 1007.57 1007.81 1008.13 1008.33 1008.53 1008.85 1008.97 1009.49 1009.73 1009.97 1010.21 1010.65 1011.17 1011.37 1011.73 1012.21 1012.69 1013.05 1013.29 1013.49 1013.77 1014.05 1014.09 1014.29 1014.61 1014.85 1015.09 1015.21 1015.25 1015.41 1015.57 1015.73 1015.89 1016.01 1016.09 1016.09 1016.33 1016.49
1005.77 1005.97 1006.37 1006.73 1007.17 1007.29 1007.65 1007.77 1007.93 1008.29 1008.53 1008.97 1009.25 1009.53 1010.09 1010.33 1010.69 1011.01 1011.41 1011.89 1012.45 1012.85 1013.09 1013.25 1013.37 1013.53 1013.73 1013.85 1014.05 1014.33 1014.69 1014.97 1015.09 1015.17 1015.17 1015.25 1015.41 1015.69 1015.81 1015.97 1016.17 1016.37
1005.29 1005.53 1006.01 1006.25 1006.49 1006.73 1007.09 1007.21 1007.45 1007.77 1008.01 1008.45 1008.81 1009.21 1009.57 1010.05 1010.49 1010.73 1011.21 1011.61 1012.01 1012.25 1012.49 1012.73 1013.01 1013.17 1013.45 1013.53 1013.61 1013.89 1014.21 1014.53 1014.77 1014.89 1014.93 1015.01 1015.09 1015.25 1015.45 1015.65 1015.85 1016.05
1004.85 1005.17 1005.45 1005.65 1005.93 1006.21 1006.49 1006.69 1006.85 1007.21 1007.57 1007.93 1008.25 1008.77 1009.13 1009.53 1010.05 1010.45 1010.73 1011.13 1011.33 1011.53 1011.69 1012.13 1012.49 1012.81 1013.05 1013.17 1013.29 1013.53 1013.81 1014.05 1014.25 1014.45 1014.61 1014.73 1014.85 1014.93 1015.09 1015.21 1015.45 1015.61
1004.33 1004.57 1004.77 1005.13 1005.41 1005.65 1005.81 1006.09 1006.33 1006.57 1007.01 1007.57 1007.77 1008.29 1008.85 1009.33 1009.53 1009.93 1010.21 1010.61 1010.93 1011.17 1011.53 1011.77 1012.05 1012.29 1012.61 1012.89 1013.05 1013.21 1013.57 1013.89 1014.05 1014.21 1014.33 1014.45 1014.53 1014.61 1014.69 1014.81 1014.97 1015.17
1003.65 1003.81 1004.21 1004.49 1004.69 1005.01 1005.37 1005.65 1005.89 1006.21 1006.57 1007.05 1007.45 1007.97 1008.37 1008.89 1009.25 1009.53 1009.81 1010.09 1010.45 1010.81 1011.05 1011.29 1011.65 1011.97 1012.37 1012.61 1012.77 1012.97 1013.29 1013.61 1013.85 1014.01 1014.25 1014.29 1014.29 1014.29 1014.33 1014.45 1014.53 1014.65
1003.05 1003.37 1003.65 1004.01 1004.37 1004.81 1005.17 1005.41 1005.65 1005.89 1006.17 1006.61 1007.05 1007.41 1007.53 1007.85 1008.53 1009.05 1009.49 1009.85 1010.09 1010.37 1010.65 1011.01 1011.37 1011.53 1011.73 1012.05 1012.37 1012.61 1012.69 1012.97 1013.17 1013.45 1013.77 1014.01 1014.17 1014.17 1014.13 1014.17 1014.21 1014.25
1002.65 1003.01 1003.37 1003.69 1004.21 1004.53 1004.77 1005.05 1005.33 1005.61 1005.89 1006.25 1006.57 1006.81 1007.13 1007.33 1007.97 1008.65 1009.01 1009.37 1009.81 1010.09 1010.29 1010.49 1010.77 1010.93 1011.17 1011.57 1011.81 1012.05 1012.33 1012.49 1012.81 1013.13 1013.41 1013.65 1013.93 1014.05 1014.01 1014.05 1014.05 1013.97
1002.41 1002.85 1003.13 1003.61 1003.81 1004.13 1004.53 1004.89 1005.17 1005.37 1005.69 1005.97 1006.25 1006.49 1006.77 1007.13 1007.65 1008.33 1008.69 1008.93 1009.25 1009.61 1009.93 1010.13 1010.21 1010.33 1010.65 1011.17 1011.53 1011.77 1012.01 1012.33 1012.69 1012.93 1013.05 1013.33 1013.57 1013.85 1013.97 1013.89 1013.81 1013.73
1002.17 1002.57 1003.09 1003.45 1003.69 1004.09 1004.37 1004.65 1004.93 1005.25 1005.53 1005.73 1006.01 1006.33 1006.57 1006.81 1007.45 1007.97 1008.37 1008.65 1008.85 1009.17 1009.53 1009.65 1009.81 1009.97 1010.37 1010.89 1011.41 1011.73 1011.85 1012.05 1012.37 1012.61 1012.77 1012.97 1013.17 1013.41 1013.57 1013.61 1013.65 1013.65
1001.97 1002.53 1003.01 1003.37 1003.61 1003.85 1004.13 1004.53 1004.89 1005.21 1005.41 1005.61 1005.93 1006.13 1006.49 1007.05 1007.49 1007.93 1008.29 1008.37 1008.61 1009.05 1009.29 1009.41 1009.61 1009.77 1010.17 1010.77 1011.41 1011.65 1011.73 1011.73 1011.81 1012.05 1012.41 1012.65 1012.81 1013.01 1013.33 1013.57 1013.49 1013.53
1001.85 1002.49 1002.97 1003.29 1003.49 1003.77 1004.13 1004.57 1004.93 1005.21 1005.25 1005.37 1005.73 1006.17 1006.73 1007.25 1007.57 1007.89 1008.09 1008.29 1008.49 1008.85 1009.13 1009.21 1009.29 1009.53 1010.09 1011.05 1011.41 1011.49 1011.69 1011.89 1011.73 1011.89 1012.21 1012.41 1012.69 1012.85 1013.17 1013.17 1013.21 1013.33
1001.81 1002.37 1002.93 1003.17 1003.45 1003.77 1004.21 1004.65 1004.93 1005.17 1005.37 1005.45 1005.69 1006.17 1006.73 1007.05 1007.33 1007.61 1007.77 1008.01 1008.29 1008.53 1008.85 1009.01 1009.05 1009.49 1010.17 1011.05 1011.13 1011.33 1011.73 1012.05 1011.89 1012.29 1012.45 1012.81 1013.01 1012.89 1013.05 1013.17 1013.17 1013.13
1001.73 1002.29 1002.69 1003.13 1003.49 1003.85 1004.33 1004.73 1004.93 1005.13 1005.41 1005.37 1005.53 1005.89 1006.21 1006.57 1007.01 1007.25 1007.61 1007.81 1007.93 1008.17 1008.53 1008.85 1009.09 1009.69 1010.05 1010.81 1011.13 1011.49 1011.77 1011.77 1011.81 1011.97 1012.25 1012.61 1012.73 1012.77 1012.93 1012.89 1012.89 1013.01
1001.49 1002.09 1002.65 1003.13 1003.45 1003.97 1004.41 1004.65 1004.89 1005.05 1005.17 1005.17 1005.69 1005.97 1006.41 1006.65 1006.85 1007.01 1007.17 1007.45 1007.65 1007.93 1008.41 1008.81 1009.37 1009.89 1010.29 1011.21 1011.41 1011.25 1011.45 1011.65 1011.73 1011.81 1012.01 1012.37 1012.57 1012.57 1012.65 1012.69 1012.73 1012.85
1001.41 1001.89 1002.49 1002.89 1003.25 1003.81 1004.25 1004.45 1004.57 1004.77 1005.05 1005.09 1005.65 1005.97 1006.29 1006.37 1006.49 1006.81 1006.93 1007.13 1007.45 1007.89 1008.09 1008.69 1009.37 1009.93 1010.09 1010.57 1010.53 1010.69 1010.93 1011.09 1011.33 1011.65 1011.97 1012.45 1012.53 1012.37 1012.41 1012.57 1012.65 1012.85
1001.29 1001.77 1002.25 1002.73 1003.21 1003.45 1003.65 1004.05 1004.37 1004.61 1004.77 1004.97 1005.29 1005.57 1005.93 1006.09 1006.29 1006.65 1006.93 1007.09 1007.25 1007.57 1007.89 1008.41 1009.21 1009.73 1009.77 1010.05 1010.57 1010.65 1010.65 1010.73 1011.01 1011.41 1011.89 1012.33 1012.41 1012.65 1012.41 1012.17 1012.21 1012.41
1001.17 1001.73 1002.09 1002.53 1002.97 1003.21 1003.37 1003.61 1003.81 1004.21 1004.61 1004.93 1005.13 1005.29 1005.65 1005.85 1006.17 1006.53 1007.05 1007.29 1007.33 1007.73 1008.25 1008.49 1009.13 1009.89 1010.17 1010.25 1010.37 1010.57 1010.61 1010.65 1010.93 1011.45 1012.05 1012.37 1012.49 1012.53 1012.45 1012.37 1012.29 1012.37
Wind_Speed
11 10 10 10 8 8 8 9 9 9 8 8 8 7 8 6 5 8 9 8 7 6 6 6 4 5 5 5 3 2 3 5 3 5 4 3 3 4 3 4 3 2
12 11 10 9 9 8 8 9 9 9 9 8 8 8 7 8 7 7 8 9 7 7 6 7 6 5 5 5 5 5 3 3 5 3 5 5 4 4 5 3 4 3
13 12 12 12 11 11 12 10 10 9 8 8 8 8 8 8 8 7 8 9 9 8 8 7 7 6 5 5 5 5 5 4 5 4 4 6 5 4 4 4 4 4
14 13 13 13 12 12 10 10 9 9 8 9 8 7 9 8 9 9 8 10 9 8 8 8 9 8 7 6 6 6 6 5 5 4 3 5 4 4 4 3 2 3
15 14 13 13 12 11 11 11 11 10 10 9 9 8 8 8 9 9 8 8 8 9 8 9 9 9 9 8 7 6 7 6 5 5 4 5 5 4 3 3 4 4
15 14 14 13 12 12 12 12 11 11 11 11 11 9 9 10 10 10 9 10 9 9 9 9 9 8 9 7 6 5 5 7 7 6 5 4 4 5 5 5 5 4
16 15 16 14 14 13 12 12 11 10 11 10 10 10 10 11 12 12 11 11 11 10 10 10 9 8 8 7 7 7 5 6 5 8 7 5 4 4 5 5 4 3
17 16 15 14 14 14 13 12 12 11 11 10 11 11 11 12 13 11 11 11 11 10 9 9 9 9 9 8 8 8 8 6 5 6 8 7 5 5 5 3 3 4
16 16 16 16 16 14 15 15 13 12 11 12 11 11 11 11 12 12 12 12 11 10 9 9 10 10 9 9 10 10 10 7 7 6 7 7 7 6 6 4 4 4
17 16 17 18 18 15 17 17 16 14 12 13 12 11 12 11 12 12 12 12 11 10 9 9 12 11 10 10 11 11 9 8 7 7 6 7 7 7 6 5 5 4
18 17 17 18 18 16 19 19 17 16 14 15 13 13 13 12 11 11 11 12 12 12 13 11 12 12 11 11 10 10 10 9 8 8 7 7 7 6 6 6 6 7
17 17 17 19 19 17 19 18 16 14 14 14 14 15 14 14 14 12 12 13 13 13 13 12 11 11 12 11 11 11 10 10 9 8 8 7 7 7 6 6 5 5
17 17 16 18 15 15 14 15 16 17 17 16 15 15 15 15 15 14 13 13 13 11 12 12 12 12 12 11 10 11 10 10 10 9 7 7 6 7 7 7 7 6
17 16 16 15 15 14 14 13 14 13 13 13 13 15 16 15 15 15 13 13 13 12 12 12 12 11 11 11 11 10 10 10 9 9 9 8 8 8 8 8 8 8
15 14 14 14 14 13 13 13 13 12 12 14 14 14 13 16 15 15 14 14 14 13 13 12 12 12 11 12 12 11 11 12 12 11 10 9 9 9 8 8 7 7
14 13 13 13 13 14 14 13 12 12 12 13 15 14 12 12 13 14 14 15 15 14 13 12 11 10 13 17 14 11 12 10 10 9 8 7 7 6 6 6 7 7
13 13 12 13 14 12 12 12 12 11 10 11 12 13 13 12 13 15 14 14 15 15 15 12 11 11 18 18 19 17 11 9 9 9 8 8 8 6 6 6 5 6
12 12 12 12 11 12 11 11 10 10 10 10 11 13 12 11 13 14 13 13 13 14 14 13 11 14 18 18 17 17 15 10 9 8 8 7 7 6 5 5 5 6
12 12 12 11 11 10 10 10 10 10 10 10 11 10 9 9 10 12 13 12 12 13 14 13 11 14 18 18 15 16 16 13 9 8 7 8 7 7 5 5 5 5
12 12 12 11 11 10 9 9 10 11 9 8 8 7 7 7 9 11 11 11 11 11 11 10 10 14 19 17 17 17 15 8 5 5 6 5 4 4 5 5 5 5
12 12 12 11 11 10 10 9 9 8 7 8 8 9 10 9 9 10 10 10 11 10 10 11 8 17 19 20 19 16 14 9 5 5 3 2 4 5 3 2 2 4
13 12 11 10 10 9 9 9 8 8 9 8 8 8 9 9 8 8 9 10 10 11 10 11 8 18 20 19 17 14 13 8 8 6 4 6 6 2 2 5 4 6
11 11 11 10 10 9 9 9 8 8 8 7 7 7 8 9 9 9 8 9 10 9 9 8 8 15 17 15 14 18 15 8 7 7 6 5 3 6 4 3 4 2
10 11 10 9 9 10 9 7 6 5 6 6 7 7 9 10 9 8 8 9 9 10 10 9 8 13 20 19 22 18 14 10 8 7 5 3 3 4 2 1 7 7
9 9 9 9 9 9 9 9 8 6 6 6 7 7 7 7 8 8 7 7 7 8 10 10 10 12 20 18 15 17 13 7 7 6 7 6 4 4 3 4 3 4
9 10 10 9 9 8 7 7 7 7 8 8 8 7 7 7 6 6 7 6 7 6 6 8 12 8 12 16 16 13 12 6 6 6 5 4 4 5 4 3 4 4
Wind_Direction
183 183 186 187 187 185 179 173 175 181 177 173 173 179 176 179 178 151 156 160 168 184 173 172 191 171 174 176 164 204 159 157 188 155 170 174 203 252 231 209 223 212
185 183 185 187 187 185 184 177 175 184 180 176 177 173 177 166 174 156 157 158 171 184 178 179 177 181 178 175 173 180 181 175 181 177 177 175 189 224 243 226 208 203
185 184 186 189 190 188 188 179 181 183 179 184 184 170 171 161 165 162 157 162 174 183 183 178 175 180 181 182 178 177 188 186 192 208 170 172 180 212 230 232 199 205
186 188 188 191 192 189 188 185 185 180 182 183 191 169 168 167 164 165 165 172 172 185 182 181 179 178 184 190 178 181 193 194 193 204 186 163 182 199 210 236 225 214
186 190 191 192 191 187 187 187 188 183 187 183 183 178 169 164 162 167 170 176 177 186 182 183 180 181 184 187 183 181 191 193 196 190 197 169 173 188 224 221 213 219
188 190 190 192 189 187 187 190 189 187 187 183 183 178 174 162 164 171 173 181 184 189 188 186 183 186 184 183 180 182 193 199 194 182 186 189 182 184 209 213 205 205
188 190 192 191 191 189 189 188 189 188 186 187 174 183 172 168 172 176 179 182 187 189 191 186 182 185 181 178 179 183 200 208 198 183 182 184 195 210 211 214 192 191
189 191 192 191 192 191 192 187 187 190 184 184 180 181 174 174 176 178 178 180 188 189 191 181 178 183 180 175 179 182 204 201 212 189 181 179 183 207 226 220 191 198
187 190 191 192 193 192 194 190 188 187 184 188 183 181 176 177 177 179 177 180 185 185 185 180 177 184 184 176 179 186 195 197 204 210 182 179 184 198 207 201 211 212
189 190 190 192 194 195 194 195 192 188 185 188 187 181 177 178 179 183 178 176 181 181 187 182 180 183 186 183 183 186 187 194 198 202 196 186 183 195 205 207 213 213
190 189 190 192 194 192 194 194 192 191 186 188 187 187 180 178 178 182 177 175 183 181 182 187 184 183 186 188 183 182 185 191 197 196 196 190 194 199 205 205 205 211
190 191 191 194 193 194 194 194 194 189 187 186 187 188 182 180 178 181 179 181 186 185 182 180 181 185 189 192 185 179 185 191 196 197 194 192 194 199 210 212 214 213
189 192 192 194 190 192 193 193 196 193 190 189 187 190 187 185 183 181 179 183 185 183 179 182 186 188 188 191 189 183 187 190 195 196 194 196 201 205 214 217 217 216
191 191 189 192 192 191 192 194 196 194 187 182 185 189 188 189 188 182 178 182 183 183 184 185 189 189 186 191 191 185 184 189 192 193 196 201 205 208 212 218 214 217
187 188 190 191 190 188 190 192 193 192 183 179 185 192 194 195 193 185 177 181 181 185 184 184 190 192 187 187 188 187 186 189 192 190 194 196 204 210 212 219 224 227
184 185 187 187 188 188 190 190 191 192 189 186 186 190 191 188 180 184 181 181 182 186 188 188 190 190 189 186 189 187 188 189 186 190 193 198 202 211 219 218 228 234
180 183 183 187 187 185 186 188 191 192 194 189 186 187 189 178 175 184 186 184 184 186 188 190 191 191 183 183 189 190 187 187 184 186 192 197 202 203 212 219 230 231
177 178 180 182 181 181 182 187 189 194 196 189 184 185 191 180 178 182 184 185 187 188 189 192 190 186 177 179 182 185 189 187 187 190 193 195 195 206 213 223 229 238
169 173 174 174 177 175 173 178 186 193 197 190 185 182 183 183 182 178 186 188 187 187 191 189 193 173 174 170 178 186 188 188 187 185 187 193 196 203 204 213 218 220
166 169 172 172 167 170 172 179 188 194 195 183 173 168 176 180 189 186 187 189 187 187 190 185 195 168 165 166 186 189 190 192 189 179 194 194 200 210 210 214 210 220
166 167 167 165 166 172 176 185 189 189 189 185 182 174 179 189 189 195 190 189 185 184 190 188 182 165 153 174 186 185 185 197 202 196 207 230 248 228 233 296 269 251
161 159 156 157 162 168 178 186 185 188 194 193 191 183 181 180 187 199 193 192 188 186 191 183 157 156 155 174 176 171 179 198 207 195 194 206 216 114 196 231 239 246
152 153 157 162 164 168 181 184 186 186 192 190 193 187 178 179 184 192 189 193 190 179 173 175 140 160 146 164 163 181 188 191 191 192 198 209 188 171 201 240 246 8
154 155 158 164 168 171 170 171 182 181 186 180 187 177 184 187 183 188 189 187 186 178 176 168 144 156 158 176 186 180 175 188 184 186 163 201 195 174 161 72 46 45
147 154 156 164 168 172 171 171 180 182 185 178 190 191 190 182 184 185 173 173 177 175 165 153 143 167 175 175 176 183 187 180 171 158 151 190 161 106 153 177 173 170
152 153 155 164 163 171 171 169 167 179 188 187 195 197 199 188 169 165 158 160 154 133 101 134 144 146 167 171 194 178 182 182 148 130 129 151 145 175 209 223 215 215